Home   Weather   India   Godhra   Past weeks
Flag for India

Past Weather in Godhra, Gujarat, India — Yesterday and Last 2 Weeks

Currently: 91 °F. Broken clouds. (Weather station: Ahmadabad Airport, India). See more current weather

Past Weather in Godhra — Graph

°F

Godhra Temperature Yesterday

Maximum temperature yesterday: 90 °F (at 3:30 pm)
Minimum temperature yesterday: 79 °F (at 3:30 am)
Average temperature yesterday: 84 °F

High & Low Weather Summary for the Past Weeks

 TemperatureHumidityPressure
High95 °F (Jul 22, 2:00 pm)100% (Jul 23, 6:00 am)29.68 "Hg (Jul 23, 6:00 am)
Low77 °F (Jul 23, 6:00 am)56% (Jul 22, 7:00 pm)29.36 "Hg (Jul 22, 4:30 pm)
Average83 °F85%29.55 "Hg
* Reported Jul 21 2:30 pm — Aug 5 2:30 pm, Godhra. Weather by CustomWeather, © 2021

Note: Actual official high and low records may vary slightly from our data, if they occured in-between our weather recording intervals... More about our weather records

Godhra Weather History for the Previous 24 Hours

Scroll right to see more
 ConditionsComfort  
Time TempWeatherWind HumidityBarometerVisibility
2:30 pm
Thu, Aug 5
90 °FBroken clouds.9 mph63%29.62 "Hg3 mi
2:00 pm90 °FBroken clouds.9 mph63%29.62 "Hg3 mi
1:30 pm90 °FBroken clouds.10 mph63%29.62 "Hg3 mi
1:00 pm88 °FBroken clouds.9 mph66%29.62 "Hg3 mi
12:30 pm90 °FBroken clouds.10 mph63%29.62 "Hg3 mi
12:00 pm90 °FScattered clouds.9 mph63%29.62 "Hg3 mi
11:30 am88 °FScattered clouds.6 mph66%29.62 "Hg3 mi
11:00 am88 °FPartly sunny.7 mph70%29.62 "Hg2 mi
10:30 am86 °FPartly sunny.5 mph75%29.65 "Hg2 mi
10:00 am84 °FPartly sunny.9 mph74%29.62 "Hg2 mi
9:30 am84 °FPartly sunny.9 mph74%29.62 "Hg2 mi
9:00 am82 °FFog.7 mph84%29.62 "Hg2 mi
8:30 am81 °FFog.8 mph89%29.62 "Hg1 mi
8:00 am81 °FFog.6 mph89%29.65 "Hg1 mi
7:30 am81 °FFog.5 mph89%29.62 "Hg1 mi
7:00 am79 °FFog.6 mph89%29.62 "Hg1 mi
6:30 am79 °FFog.9 mph89%29.62 "Hg2 mi
5:00 am79 °FFog.6 mph89%29.59 "Hg2 mi
4:30 am79 °FFog.5 mph89%29.59 "Hg2 mi
4:00 am81 °FFog.5 mph89%29.59 "Hg2 mi
3:30 am81 °FFog.6 mph89%29.59 "Hg2 mi
3:00 am81 °FFog.7 mph89%29.59 "Hg2 mi
2:30 am81 °FPartly cloudy.9 mph89%29.59 "Hg2 mi
2:00 am81 °FFog.9 mph89%29.59 "Hg2 mi
1:30 am81 °FPartly cloudy.9 mph89%29.59 "Hg2 mi
1:00 am82 °FPartly cloudy.7 mph84%29.62 "Hg2 mi
12:30 am82 °FPartly cloudy.6 mph79%29.62 "Hg2 mi
12:00 am82 °FPartly cloudy.6 mph79%29.65 "Hg2 mi
11:30 pm
Wed, Aug 4
84 °FPartly cloudy.6 mph74%29.65 "Hg2 mi
11:00 pm84 °FPartly cloudy.6 mph74%29.62 "Hg2 mi
10:30 pm84 °FPartly cloudy.7 mph79%29.62 "Hg2 mi
10:00 pm86 °FPartly cloudy.6 mph75%29.62 "Hg2 mi
9:30 pm86 °FPartly cloudy.3 mph75%29.62 "Hg2 mi
9:00 pm86 °FPartly cloudy.3 mph79%29.62 "Hg2 mi
8:30 pm88 °FPartly cloudy.5 mph70%29.59 "Hg2 mi
8:00 pm86 °FPartly cloudy.6 mph75%29.59 "Hg2 mi
7:30 pm88 °FBroken clouds.7 mph70%29.56 "Hg3 mi
7:00 pm90 °FBroken clouds.6 mph67%29.56 "Hg3 mi
6:30 pm90 °FBroken clouds.6 mph67%29.56 "Hg3 mi
6:00 pm90 °FBroken clouds.7 mph71%29.56 "Hg3 mi
5:30 pm90 °FBroken clouds.6 mph71%29.56 "Hg3 mi
5:00 pm90 °FBroken clouds.7 mph71%29.56 "Hg3 mi
4:30 pm90 °FBroken clouds.7 mph71%29.56 "Hg3 mi
4:00 pm90 °FBroken clouds.5 mph75%29.56 "Hg3 mi
3:30 pm90 °FMore clouds than sun.6 mph71%29.59 "Hg2 mi
3:00 pm88 °FMore clouds than sun.7 mph75%29.59 "Hg2 mi
Weather by CustomWeather, © 2021

See weather overview